Weather History for Lander, WY

Change the Weather History Date:

Tuesday, January 8, 2013

  Actual Average Record
Temperature  
Mean Temperature 30 °F 21 °F  
Max Temperature 42 °F 33 °F 55 °F (2009)
Min Temperature 17 °F 10 °F -26 °F (1937)
Degree Days  
Heating Degree Days 35 44  
Month to date heating degree days 417 352  
Since 1 July heating degree days 3192 3598  
Cooling Degree Days 0 0  
Month to date cooling degree days 0 0  
Year to date cooling degree days 0 0  
Moisture  
Dew Point 15 °F    
Average Humidity 54    
Maximum Humidity 68    
Minimum Humidity 40    
Precipitation  
Precipitation 0.00 in 0.02 in 0.34 in (1962)
Month to date precipitation 0.00 0.12  
Year to date precipitation 0.00 0.12  
Snow  
Snow 0.00 in 0.20 in - ()
Month to date snowfall 0.0 2.1  
Since 1 July snowfall 15.7 37.8  
Snow Depth 2.00 in    
Sea Level Pressure  
Sea Level Pressure 30.08 in    
Wind  
Wind Speed 5 mph (SSW)    
Max Wind Speed 16 mph    
Max Gust Speed 20 mph    
Visibility 10 miles    
Events      
T = Trace of Precipitation, MM = Missing Value Source: NWS Daily Summary

Daily Weather History Graph

Daily Weather History Graph

Search for Another Location

Airport:

Trip Planner

Search our weather history database for the weather conditions in past years. The results will help you decide how hot, cold, wet, or windy it might be!

Date:

Astronomy

Jan. 08, 2013 Rise Set
Actual Time 7:45 AM MST 4:58 PM MST
Civil Twilight 7:13 AM MST 5:30 PM MST
Nautical Twilight 6:38 AM MST 6:05 PM MST
Astronomical Twilight 6:03 AM MST 6:39 PM MST
Moon 4:21 AM MST (1/8) 2:04 PM MST (1/8)
Length of Visible Light 10h 17m
Length of Day
9h 13m
Waning Crescent, 13% of the Moon is Illuminated
Jan 8
Waning Crescent
Jan 11
New
Jan 18
First Quarter
Jan 26
Full
Feb 3
Last Quarter

Hourly Weather History & Observations

Time (MST) Temp. Windchill Dew Point Humidity Pressure Visibility Wind Dir Wind Speed Gust Speed Precip Events Conditions
12:53 AM 21.9 °F 13.4 °F 10.0 °F 60% 29.93 in 10.0 mi SSE 6.9 mph - N/A   Clear
1:53 AM 19.9 °F - 10.0 °F 65% 29.98 in 10.0 mi Calm Calm - N/A   Partly Cloudy
2:53 AM 28.9 °F - 14.0 °F 54% 29.94 in 10.0 mi Calm Calm - N/A   Clear
3:53 AM 21.0 °F 13.4 °F 10.9 °F 65% 29.97 in 10.0 mi SW 5.8 mph - N/A   Partly Cloudy
4:53 AM 23.0 °F 17.0 °F 12.9 °F 65% 29.97 in 10.0 mi SE 4.6 mph - N/A   Clear
5:53 AM 21.0 °F - 12.0 °F 68% 30.01 in 10.0 mi Calm Calm - N/A   Clear
6:53 AM 27.0 °F 20.5 °F 15.1 °F 61% 30.01 in 10.0 mi South 5.8 mph - N/A   Clear
7:53 AM 24.1 °F - 14.0 °F 65% 30.05 in 10.0 mi Calm Calm - N/A   Clear
8:53 AM 26.1 °F 17.6 °F 14.0 °F 60% 30.07 in 10.0 mi West 8.1 mph - N/A   Clear
9:53 AM 25.0 °F - 14.0 °F 63% 30.10 in 10.0 mi Calm Calm - N/A   Clear
10:53 AM 32.0 °F 24.8 °F 18.0 °F 56% 30.06 in 10.0 mi NNE 8.1 mph - N/A   Clear
11:53 AM 35.1 °F 31.0 °F 18.0 °F 50% 30.02 in 10.0 mi NNW 4.6 mph - N/A   Clear
12:53 PM 37.0 °F - 19.9 °F 50% 30.02 in 10.0 mi Calm Calm - N/A   Clear
1:53 PM 39.9 °F 37.8 °F 18.0 °F 41% 30.05 in 10.0 mi WSW 3.5 mph - N/A   Clear
2:53 PM 39.9 °F 35.8 °F 19.9 °F 45% 30.03 in 10.0 mi SSE 5.8 mph - N/A   Clear
3:53 PM 37.0 °F 31.6 °F 21.0 °F 52% 30.11 in 10.0 mi South 6.9 mph - N/A   Clear
4:53 PM 33.1 °F 27.7 °F 17.1 °F 52% 30.10 in 10.0 mi South 5.8 mph - N/A   Clear
5:53 PM 28.0 °F 20.8 °F 16.0 °F 61% 30.16 in 10.0 mi NW 6.9 mph - N/A   Clear
6:53 PM 28.9 °F 23.9 °F 16.0 °F 58% 30.14 in 10.0 mi SSW 4.6 mph - N/A   Clear
7:53 PM 25.0 °F 18.1 °F 15.1 °F 66% 30.19 in 10.0 mi SE 5.8 mph - N/A   Clear
8:53 PM 24.1 °F 14.4 °F 14.0 °F 65% 30.21 in 10.0 mi NW 9.2 mph - N/A   Clear
9:53 PM 21.9 °F 15.7 °F 12.9 °F 68% 30.24 in 10.0 mi East 4.6 mph - N/A   Clear
10:53 PM 24.1 °F 16.0 °F 14.0 °F 65% 30.22 in 10.0 mi NNE 6.9 mph - N/A   Clear
11:53 PM 23.0 °F 11.1 °F 12.9 °F 65% 30.25 in 10.0 mi NNW 12.7 mph - N/A   Clear